• In Österreich
  • Länderverzeichnis
  • Für 7 Tage
  • Wassertemperatur
  • Satellitenkarten
  • Wetterkarte
  • News
  • Widgets
  • user-avatar
    Anmelden

    Stündliche Wetter Swiechocin

    Heute, 19 September, Mittwoch

    Zeit Temperatur Niederschläge Wind Luftdruck Luftfeuchtigkeit
    00:00 +20°C° 0 mm 3 m/S 754 mmHg 71%
    01:00 +19°C° 0 mm 3 m/S 755 mmHg 72%
    02:00 +19°C° 0 mm 2 m/S 755 mmHg 74%
    03:00 +19°C° 0 mm 2 m/S 755 mmHg 76%
    04:00 +18°C° 0 mm 2 m/S 755 mmHg 77%
    05:00 +18°C° 0 mm 2 m/S 755 mmHg 76%
    06:00 +19°C° 0 mm 2 m/S 756 mmHg 76%
    07:00 +19°C° 0 mm 2 m/S 756 mmHg 75%
    08:00 +21°C° 0.1 mm 2 m/S 756 mmHg 69%
    09:00 +23°C° 0.1 mm 2 m/S 756 mmHg 63%
    10:00 +25°C° 0.1 mm 2 m/S 756 mmHg 56%
    11:00 +27°C° 0 mm 2 m/S 756 mmHg 52%
    12:00 +28°C° 0 mm 2 m/S 756 mmHg 48%
    13:00 +29°C° 0 mm 2 m/S 756 mmHg 44%
    14:00 +29°C° 0 mm 2 m/S 756 mmHg 44%
    15:00 +29°C° 0 mm 1 m/S 756 mmHg 44%
    16:00 +29°C° 0 mm 1 m/S 756 mmHg 44%
    17:00 +28°C° 0 mm 1 m/S 756 mmHg 49%
    18:00 +26°C° 0 mm 1 m/S 756 mmHg 54%
    19:00 +24°C° 0 mm 1 m/S 756 mmHg 59%
    20:00 +24°C° 0 mm 1 m/S 756 mmHg 61%
    21:00 +23°C° 0 mm 2 m/S 756 mmHg 64%
    22:00 +21°C° 0 mm 2 m/S 756 mmHg 66%
    23:00 +21°C° 0.1 mm 2 m/S 756 mmHg 68%

    Morgen, 20 September, Donnerstag

    Zeit Temperatur Niederschläge Wind Luftdruck Luftfeuchtigkeit
    00:00 +21°C° 0.1 mm 2 m/S 756 mmHg 70%
    01:00 +20°C° 0.1 mm 2 m/S 756 mmHg 72%
    02:00 +20°C° 0.1 mm 2 m/S 756 mmHg 74%
    03:00 +19°C° 0.1 mm 2 m/S 756 mmHg 77%
    04:00 +19°C° 0.1 mm 2 m/S 756 mmHg 79%
    05:00 +19°C° 0.1 mm 2 m/S 756 mmHg 80%
    06:00 +19°C° 0.1 mm 2 m/S 756 mmHg 80%
    07:00 +20°C° 0.1 mm 2 m/S 757 mmHg 80%
    08:00 +21°C° 0 mm 2 m/S 757 mmHg 73%
    09:00 +24°C° 0 mm 2 m/S 757 mmHg 66%
    10:00 +26°C° 0 mm 3 m/S 757 mmHg 60%
    11:00 +27°C° 0 mm 3 m/S 757 mmHg 55%
    12:00 +28°C° 0 mm 3 m/S 756 mmHg 51%
    13:00 +29°C° 0 mm 3 m/S 756 mmHg 47%
    14:00 +29°C° 0 mm 3 m/S 756 mmHg 46%
    15:00 +29°C° 0 mm 3 m/S 756 mmHg 45%
    16:00 +29°C° 0 mm 3 m/S 756 mmHg 45%
    17:00 +27°C° 0 mm 2 m/S 755 mmHg 50%
    18:00 +25°C° 0 mm 2 m/S 755 mmHg 55%
    19:00 +23°C° 0 mm 1 m/S 755 mmHg 60%
    20:00 +23°C° 0 mm 1 m/S 755 mmHg 61%
    21:00 +22°C° 0 mm 1 m/S 755 mmHg 62%
    22:00 +22°C° 0 mm 1 m/S 755 mmHg 63%
    23:00 +21°C° 0 mm 2 m/S 755 mmHg 64%

    übermorgen, 21 September, Freitag

    Zeit Temperatur Niederschläge Wind Luftdruck Luftfeuchtigkeit
    00:00 +20°C° 0 mm 2 m/S 754 mmHg 66%
    01:00 +20°C° 0 mm 2 m/S 754 mmHg 67%
    02:00 +20°C° 0 mm 3 m/S 754 mmHg 69%
    03:00 +20°C° 0 mm 3 m/S 753 mmHg 71%
    04:00 +20°C° 0 mm 3 m/S 753 mmHg 72%
    05:00 +20°C° 0 mm 3 m/S 753 mmHg 72%
    06:00 +20°C° 0 mm 3 m/S 752 mmHg 71%
    07:00 +20°C° 0 mm 4 m/S 752 mmHg 70%
    08:00 +23°C° 0 mm 4 m/S 752 mmHg 62%
    09:00 +26°C° 0 mm 5 m/S 751 mmHg 54%
    10:00 +28°C° 0 mm 6 m/S 751 mmHg 46%
    11:00 +29°C° 0 mm 6 m/S 750 mmHg 42%
    12:00 +30°C° 0 mm 6 m/S 750 mmHg 38%
    13:00 +32°C° 0 mm 7 m/S 749 mmHg 34%
    14:00 +30°C° 0 mm 6 m/S 748 mmHg 35%
    15:00 +30°C° 0 mm 6 m/S 747 mmHg 36%
    16:00 +30°C° 0 mm 5 m/S 746 mmHg 38%
    17:00 +29°C° 0 mm 5 m/S 746 mmHg 41%
    18:00 +27°C° 0 mm 5 m/S 746 mmHg 44%
    19:00 +26°C° 0 mm 5 m/S 745 mmHg 47%
    20:00 +23°C° 0.6 mm 6 m/S 746 mmHg 56%
    21:00 +20°C° 0.6 mm 7 m/S 747 mmHg 65%
    22:00 +17°C° 0.6 mm 9 m/S 747 mmHg 74%
    23:00 +15°C° 1.6 mm 8 m/S 749 mmHg 76%

    22 September, Samstag

    Zeit Temperatur Niederschläge Wind Luftdruck Luftfeuchtigkeit
    00:00 +12°C° 1.6 mm 7 m/S 750 mmHg 78%
    01:00 +11°C° 1.6 mm 7 m/S 751 mmHg 80%
    02:00 +10°C° 0.1 mm 6 m/S 752 mmHg 77%
    03:00 +10°C° 0.1 mm 6 m/S 752 mmHg 74%
    04:00 +10°C° 0.1 mm 5 m/S 753 mmHg 71%
    05:00 +10°C° 0 mm 6 m/S 753 mmHg 70%
    06:00 +10°C° 0 mm 6 m/S 753 mmHg 69%
    07:00 +10°C° 0 mm 7 m/S 754 mmHg 67%
    08:00 +11°C° 0 mm 7 m/S 754 mmHg 65%
    09:00 +12°C° 0 mm 7 m/S 755 mmHg 62%
    10:00 +14°C° 0 mm 7 m/S 755 mmHg 59%
    11:00 +14°C° 0 mm 7 m/S 755 mmHg 55%
    12:00 +15°C° 0 mm 7 m/S 755 mmHg 51%
    13:00 +16°C° 0 mm 8 m/S 755 mmHg 47%
    14:00 +16°C° 0.1 mm 7 m/S 755 mmHg 47%
    15:00 +16°C° 0.1 mm 7 m/S 755 mmHg 48%
    16:00 +15°C° 0.1 mm 7 m/S 755 mmHg 48%
    17:00 +14°C° 0.1 mm 6 m/S 756 mmHg 52%
    18:00 +13°C° 0.1 mm 5 m/S 756 mmHg 56%
    19:00 +12°C° 0.1 mm 4 m/S 756 mmHg 59%
    20:00 +12°C° 0 mm 4 m/S 756 mmHg 61%
    21:00 +11°C° 0 mm 4 m/S 756 mmHg 62%
    22:00 +11°C° 0 mm 4 m/S 756 mmHg 64%
    23:00 +11°C° 0 mm 4 m/S 756 mmHg 66%

    23 September, Sonntag

    Zeit Temperatur Niederschläge Wind Luftdruck Luftfeuchtigkeit
    00:00 +10°C° 0 mm 4 m/S 757 mmHg 67%
    01:00 +10°C° 0 mm 4 m/S 757 mmHg 69%
    02:00 +9°C° 0 mm 3 m/S 756 mmHg 71%
    03:00 +9°C° 0 mm 3 m/S 756 mmHg 73%
    04:00 +8°C° 0 mm 3 m/S 756 mmHg 76%
    05:00 +9°C° 0 mm 3 m/S 756 mmHg 75%
    06:00 +9°C° 0 mm 3 m/S 756 mmHg 74%
    07:00 +9°C° 0 mm 3 m/S 756 mmHg 74%
    08:00 +11°C° 0 mm 3 m/S 755 mmHg 67%
    09:00 +12°C° 0 mm 3 m/S 755 mmHg 60%
    10:00 +14°C° 0 mm 4 m/S 755 mmHg 53%
    11:00 +14°C° 0 mm 4 m/S 754 mmHg 52%
    12:00 +15°C° 0 mm 4 m/S 753 mmHg 51%
    13:00 +15°C° 0 mm 4 m/S 752 mmHg 50%
    14:00 +14°C° 0.2 mm 4 m/S 751 mmHg 55%
    15:00 +13°C° 0.2 mm 5 m/S 750 mmHg 61%
    16:00 +12°C° 0.2 mm 5 m/S 749 mmHg 66%
    17:00 +12°C° 0.6 mm 5 m/S 748 mmHg 70%
    18:00 +11°C° 0.6 mm 6 m/S 746 mmHg 74%
    19:00 +10°C° 0.6 mm 6 m/S 745 mmHg 78%
    20:00 +10°C° 1.1 mm 6 m/S 744 mmHg 80%
    21:00 +11°C° 1.1 mm 7 m/S 742 mmHg 82%
    22:00 +11°C° 1.1 mm 7 m/S 740 mmHg 84%
    23:00 +11°C° 2.4 mm 7 m/S 740 mmHg 85%

    24 September, Montag

    Zeit Temperatur Niederschläge Wind Luftdruck Luftfeuchtigkeit
    00:00 +12°C° 2.4 mm 7 m/S 740 mmHg 86%
    01:00 +13°C° 2.4 mm 6 m/S 739 mmHg 87%
    02:00 +13°C° 0.2 mm 6 m/S 739 mmHg 84%
    03:00 +12°C° 0.2 mm 5 m/S 738 mmHg 82%
    04:00 +12°C° 0.2 mm 5 m/S 737 mmHg 79%
    05:00 +12°C° 0 mm 5 m/S 737 mmHg 78%
    06:00 +10°C° 0 mm 5 m/S 736 mmHg 77%
    07:00 +10°C° 0 mm 6 m/S 736 mmHg 76%
    08:00 +11°C° 0.2 mm 6 m/S 736 mmHg 77%
    09:00 +11°C° 0.2 mm 6 m/S 736 mmHg 79%
    10:00 +13°C° 0.2 mm 6 m/S 736 mmHg 80%
    11:00 +11°C° 0.4 mm 6 m/S 737 mmHg 80%
    12:00 +11°C° 0.4 mm 6 m/S 737 mmHg 80%
    13:00 +11°C° 0.4 mm 6 m/S 737 mmHg 80%
    14:00 +11°C° 0.3 mm 6 m/S 738 mmHg 81%
    15:00 +11°C° 0.3 mm 6 m/S 738 mmHg 82%
    16:00 +10°C° 0.3 mm 6 m/S 738 mmHg 84%
    17:00 +10°C° 0.4 mm 5 m/S 739 mmHg 86%
    18:00 +10°C° 0.4 mm 5 m/S 740 mmHg 88%
    19:00 +10°C° 0.4 mm 5 m/S 740 mmHg 90%
    20:00 +10°C° 0.3 mm 5 m/S 741 mmHg 90%
    21:00 +10°C° 0.3 mm 5 m/S 742 mmHg 90%
    22:00 +10°C° 0.3 mm 5 m/S 743 mmHg 90%
    23:00 +10°C° 0.8 mm 6 m/S 743 mmHg 89%
    Mehr zeigen